Tracking 19245 objects as of 14-Aug-2018
HD Live streaming from Space Station
objects crossing your sky now

FENGYUN 1C DEB

Track FENGYUN 1C DEB now!
10-day predictions


NORAD ID: 29733
Int'l Code: 1999-025X
Perigee: 854.4 km
Apogee: 1,750.6 km
Inclination: 99.2 °
Period: 111.5 minutes
Semi major axis: 7673 km
RCS: 0.0505 m2 (small)
Launch date: May 10, 1999
Source: People's Republic of China (PRC)
Launch site: Taiyaun Space Center, China (TSC)

Note: This is SATELLITE DEBRIS
aabbcc
Your satellite tracking list
Your tracking list is empty




NASA's NSSDC Master Catalog

Two Line Element Set (TLE):
1 29733U 99025X   18224.78397770 +.00001033 +00000-0 +18629-2 0  9999
2 29733 099.2357 304.7080 0583968 229.3217 261.9721 12.91548888544968
Source of the keplerian elements: AFSPC